Regional Weather Roundup
Issued by NWS

Home | Current Version | Previous Version | Graphics & Text | Print | Product List | Glossary On
Versions: 1 2 3 4 5 6 7 8 9 10 11 12 13 14 15 16 17 18 19 20 21 22 23 24 25 26 27 28 29 30 31 32 33 34 35 36 37 38 39 40 41 42 43 44 45 46 47 48 49 50
000
ASUS43 KDMX 270507
RWRIA

WEATHER ROUNDUP FOR IOWA
NATIONAL WEATHER SERVICE DES MOINES IA
1100 PM CST THU FEB 26 2015

NOTE: "FAIR" INDICATES FEW OR NO CLOUDS BELOW 12,000 FEET WITH NO
SIGNIFICANT WEATHER AND/OR OBSTRUCTIONS TO VISIBILITY.

* - THESE STATIONS ARE NOT NWS STATIONS...THUS NOT UNDER NWS
QUALITY CONTROL.  THEY ALSO DO NOT REPORT WEATHER SUCH
AS PRECIPITATION OR FOG.

IAZ001>003-012>014-020>022-031>034-043>046-270600-
   NORTHWEST IOWA

CITY           SKY/WX    TMP DP  RH WIND       PRES   REMARKS
CARROLL *      PTCLDY    -2  -9  71 NW13      30.55R WCI -21
CHEROKEE *       N/A     -8 -11  84 CALM      30.55S
DENISON *      CLEAR     -9 -15  77 CALM      30.54S
LE MARS *      CLEAR     -4  -9  77 CALM      30.57S
ORANGE CITY *  CLEAR     -8 -13  77 CALM      30.52S
SHELDON *      CLEAR     -9 -17  70 NW5       30.51S WCI -21
SIOUX CITY     CLEAR     -4  -9  79 W5        30.59R WCI -15
SPENCER        CLEAR    -13 -18  78 SW6       30.52S WCI -27
STORM LAKE *   CLEAR     -6 -11  77 NW7       30.52S WCI -20
$$

IAZ055>058-069>071-079>083-090>094-270600-
   SOUTHWEST IOWA

CITY           SKY/WX    TMP DP  RH WIND       PRES   REMARKS
ATLANTIC *     PTCLDY    -4  -9  77 N3        30.56S
AUDUBON *      CLEAR     -8 -13  77 CALM      30.54S
CLARINDA *     CLEAR      1  -4  78 CALM      30.60S
COUNCIL BLFS * CLEAR      1  -4  78 N7        30.55S WCI -11
CRESTON *      CLEAR     -4  -9  77 NW6       30.53S WCI -16
HARLAN  *      CLEAR     -4  -8  84 CALM      30.60R
LAMONI         CLEAR      0  -7  72 NW9       30.54S WCI -15
RED OAK *      CLEAR      1  -4  78 N6        30.58S WCI -10
SHENANDOAH *   CLEAR     -2  -6  84 CALM      30.60S
$$

IAZ047>049-059>061-072>074-084-270600-
   CENTRAL IOWA

CITY           SKY/WX    TMP DP  RH WIND       PRES   REMARKS
AMES             N/A     -3 -10  72 NW9       30.55S WCI -19
ANKENY *       CLEAR      0  -8  71 NW6       30.56S WCI -12
CHARITON *     CLEAR     -2  -8  78 NW6       30.54S WCI -14
DES MOINES     CLEAR      0  -7  72 NW6       30.56R WCI -12
GRINNELL*      CLEAR     -9 -13  84 NW3       30.53S
KNOXVILLE *    CLEAR     -4 -13  65 NW7       30.54S WCI -18
MARSHALLTOWN   CLEAR    -13 -16  86 NW8       30.51F WCI -30
PELLA *        CLEAR     -4  -6  90 NW6       30.56S WCI -16
PERRY *          N/A     -8 -11  84 NW7       30.56R WCI -22
$$

IAZ004>006-015-016-023>025-035-036-270600-
   NORTH CENTRAL IOWA

CITY           SKY/WX    TMP DP  RH WIND       PRES   REMARKS
ALGONA *       CLEAR     -8 -13  77 NW8       30.52F WCI -23
CLARION *      CLEAR    -11 -17  77 NW8       30.52S WCI -28
ESTHERVILLE    CLEAR    -12 -16  82 W8        30.50S WCI -29
FORT DODGE *   CLEAR     -8 -13  77 CALM      30.54S
FOREST CITY *  CLEAR     -9 -17  70 NW7       30.49F WCI -24
IOWA FALLS *     N/A    -15 -20  76 NW7       30.51F WCI -31
$$

IAZ007>011-017>019-026>030-037>042-050>054-066-270600-
   NORTHEAST IOWA

CITY           SKY/WX    TMP DP  RH WIND       PRES   REMARKS
CEDAR RAPIDS   CLEAR     -8 -13  78 NW9       30.50S WCI -25
CHARLES CITY * CLEAR    -13 -18  77 W8        30.49F WCI -30
CLINTON *      CLEAR    -11 -20  64 NW8       30.49S WCI -28
DECORAH *      CLEAR     -6 -13  71 W5        30.45F WCI -17
DUBUQUE        CLEAR      0 -10  63 N13       30.44S WCI -18
MONTICELLO *   CLEAR     -8 -15  71 SW5       30.49S WCI -19
OELWEIN *      CLEAR    -13 -18  77 NW10      30.48F WCI -32
WATERLOO       CLEAR     -7 -11  83 W6        30.51F WCI -20
$$

IAZ064-065-067-068-078-270600-
   EAST CENTRAL IOWA

CITY           SKY/WX    TMP DP  RH WIND       PRES   REMARKS
DAVENPORT      CLEAR    -12 -18  74 W10       30.49S WCI -31
IOWA CITY      CLEAR     -2  -9  72 NW9       30.54S WCI -18
MT. PLEASANT * CLEAR     -2  -9  71 NW9       30.53S WCI -18
MUSCATINE *    CLEAR     -2  -9  71 NW12      30.55R WCI -20
QUAD CITIES    CLEAR      0  -9  65 W7        30.51R WCI -13
$$

IAZ062-063-075>077-085>089-095>099-270600-
   SOUTHEAST IOWA

CITY           SKY/WX    TMP DP  RH WIND       PRES   REMARKS
FAIRFIELD *    CLEAR     -6 -13  71 W7        30.54S WCI -20
FORT MADISON * CLEAR     -2  -9  71 NW10      30.53F WCI -19
KEOKUK *       CLEAR      1  -8  66 NW9       30.53S WCI -14
OSKALOOSA *      N/A     -8 -11  84 NW7       30.55S WCI -22
CENTERVILLE *  CLEAR     -2  -8  78 NW7       30.55S WCI -16
OTTUMWA        CLEAR     -3  -9  75 NW9       30.54S WCI -19
WASHINGTON *   CLEAR     -4  -8  84 NW10      30.53S WCI -21
$$

ABBREVIATIONS USED IN REMARKS
   TC - TEMPERATURES IN CELSIUS
  WCI - WIND CHILL INDEX
   HX - HEAT INDEX
  VSB - VISIBILITY
$$




USA.gov is the U.S. government's official web portal to all federal, state and local government web resources and services.